Date,TemperatureHighF,TemperatureAvgF,TemperatureLowF,DewpointHighF,DewpointAvgF,DewpointLowF,HumidityHigh,HumidityAvg,HumidityLow,PressureMaxIn,PressureMinIn,WindSpeedMaxMPH,WindSpeedAvgMPH,GustSpeedMaxMPH,PrecipitationSumIn
2013-1-1,53.0,40.7,32.6,38.7,34.7,31.3,96,81,52,30.27,30.19,3,0,4,0.00
2013-1-2,57.0,39.2,28.0,37.7,32.6,27.0,98,81,36,30.24,30.12,3,0,3,0.00
2013-1-3,56.2,40.0,29.3,40.5,34.2,28.5,98,82,47,30.26,30.16,2,0,4,0.00
2013-1-4,58.6,41.8,31.6,40.4,35.7,30.7,98,82,43,30.29,30.17,2,0,3,0.00
2013-1-5,56.2,47.0,37.6,48.3,43.6,36.2,97,88,71,30.27,30.07,3,0,4,0.12
2013-1-6,48.7,44.9,37.3,46.8,43.3,36.8,98,94,84,30.20,30.05,6,0,7,0.12
2013-1-7,58.0,45.0,35.4,48.2,41.9,34.9,98,90,60,30.26,30.15,4,0,4,0.00
2013-1-8,61.1,46.9,37.3,48.8,43.1,36.8,98,88,59,30.24,30.11,3,0,5,0.00
2013-1-9,54.6,45.3,37.6,49.0,42.5,36.8,98,90,78,30.15,29.99,3,0,9,0.01
2013-1-10,50.9,42.2,34.0,39.1,35.9,32.4,98,80,55,30.21,30.08,7,0,7,0.01
2013-1-11,52.3,40.7,29.3,41.4,35.1,28.6,98,82,53,30.28,30.13,8,0,13,0.02
2013-1-12,50.7,39.0,29.7,37.2,29.5,21.0,98,73,32,30.27,30.13,4,0,5,0.00
2013-1-13,50.4,35.7,25.2,29.8,25.4,19.0,97,71,31,30.28,30.17,3,0,5,0.00
2013-1-14,52.1,40.7,31.0,27.2,19.3,12.5,84,44,26,30.40,30.21,6,0,10,0.00
2013-1-15,54.9,38.0,26.9,31.4,26.9,22.9,92,69,33,30.47,30.39,5,0,6,0.00
2013-1-16,59.0,39.4,27.3,35.7,30.5,26.3,97,75,35,30.44,30.25,4,0,5,0.00
2013-1-17,64.8,41.9,28.2,37.9,33.2,27.5,98,76,33,30.26,30.13,3,0,3,0.00
2013-1-18,65.5,43.0,29.7,41.0,35.0,29.0,98,78,36,30.23,30.12,3,0,4,0.00
2013-1-19,65.3,43.7,30.2,40.5,35.3,29.5,98,77,34,30.26,30.15,2,0,2,0.00
2013-1-20,66.5,43.9,30.1,38.8,34.7,29.3,98,76,31,30.24,30.11,3,0,3,0.00
2013-1-21,66.7,44.1,29.2,40.5,33.9,28.2,97,73,28,30.19,30.07,3,0,4,0.00
2013-1-22,64.3,45.7,30.8,42.1,36.7,29.8,97,75,36,30.10,30.00,3,0,3,0.00
2013-1-23,57.0,50.3,44.7,51.5,45.3,40.4,96,83,62,30.08,29.95,3,0,3,0.05
2013-1-24,54.3,51.7,49.0,52.9,50.8,48.2,98,97,93,30.18,30.06,1,0,1,0.32
2013-1-25,65.3,55.9,52.1,58.4,53.6,51.2,98,92,74,30.18,30.04,3,0,4,0.01
2013-1-26,59.6,51.4,40.7,52.5,45.1,37.6,97,81,46,30.09,30.00,6,0,7,0.00
2013-1-27,56.2,45.7,36.9,41.1,37.5,29.7,98,76,38,30.17,30.08,6,0,6,0.00
2013-1-28,58.1,44.7,33.7,42.7,38.3,32.7,97,80,47,30.30,30.16,8,0,8,0.00
2013-1-29,58.2,45.1,35.0,45.4,39.6,34.1,98,83,52,30.36,30.26,8,0,8,0.00
2013-1-30,68.5,49.5,36.7,45.4,40.3,35.9,98,75,36,30.34,30.24,4,0,5,0.00
2013-1-31,68.3,47.6,34.3,44.8,39.7,33.3,98,78,37,30.29,30.17,3,0,3,0.00
2013-2-1,69.6,49.3,35.1,48.7,42.3,34.3,98,80,41,30.21,30.10,4,0,5,0.00
2013-2-2,58.0,50.2,42.4,50.4,46.9,41.3,97,89,73,30.29,30.21,4,0,4,0.00
2013-2-3,60.1,50.2,39.9,46.7,43.4,38.9,96,79,55,30.26,30.13,5,0,6,0.00
2013-2-4,59.6,46.2,35.3,49.3,43.3,34.5,98,90,68,30.20,30.07,4,0,4,0.00
2013-2-5,56.9,50.3,44.4,47.5,44.9,41.9,94,82,68,30.16,30.08,6,0,7,0.00
2013-2-6,60.7,46.6,34.5,45.1,40.4,33.7,98,81,46,30.20,30.11,6,0,6,0.00
2013-2-7,58.0,44.7,34.4,46.7,39.1,33.6,98,82,45,30.19,30.00,7,0,8,0.01
2013-2-8,54.9,44.2,35.7,42.5,39.0,33.9,97,83,53,30.01,29.94,9,0,9,0.07
2013-2-9,60.3,42.7,30.7,38.8,31.7,24.1,98,72,28,30.10,29.98,6,0,7,0.00
2013-2-10,62.4,44.5,30.5,43.5,34.5,29.4,97,73,36,30.12,30.00,5,0,7,0.00
2013-2-11,65.8,46.0,32.2,39.5,32.6,25.6,98,67,23,30.23,30.06,8,0,9,0.00
2013-2-12,64.2,46.6,33.4,45.0,36.8,31.5,95,73,35,30.35,30.23,6,0,6,0.00
2013-2-13,67.0,48.3,34.7,45.7,39.8,33.7,98,76,37,30.33,30.20,6,0,7,0.00
2013-2-14,71.8,51.5,36.0,44.6,39.8,35.0,97,70,31,30.24,30.13,6,0,7,0.00
2013-2-15,75.5,53.2,37.4,45.7,40.8,35.8,96,69,28,30.26,30.18,5,0,5,0.00
2013-2-16,71.0,52.9,38.9,48.8,43.7,37.6,97,75,36,30.22,30.04,4,0,4,0.00
2013-2-17,66.3,51.4,41.7,47.1,44.4,40.0,97,79,47,30.06,29.95,6,0,6,0.00
2013-2-18,52.5,46.2,37.8,45.4,40.3,36.8,97,81,61,30.06,29.98,6,0,7,0.00
2013-2-19,51.6,44.2,39.1,43.8,39.4,35.8,92,83,70,29.98,29.76,12,0,12,0.40
2013-2-20,59.4,44.8,32.0,41.9,36.5,31.2,97,76,35,30.07,29.83,10,0,11,0.00
2013-2-21,61.6,46.6,34.9,40.1,36.4,31.6,97,72,34,30.17,30.05,6,0,7,0.00
2013-2-22,64.7,47.7,33.7,43.9,37.6,32.4,96,72,34,30.26,30.17,6,0,6,0.00
2013-2-23,60.1,50.3,43.4,45.7,40.1,33.5,96,71,38,30.26,30.14,9,0,10,0.00
2013-2-24,64.5,49.5,35.8,37.9,31.2,22.0,85,55,21,30.25,30.15,9,0,9,0.00
2013-2-25,63.7,47.6,33.3,45.4,37.4,30.1,93,70,39,30.28,30.16,6,0,8,0.00
2013-2-26,69.2,49.6,35.1,41.2,33.7,24.9,97,63,20,30.20,30.11,7,0,7,0.00
2013-2-27,71.5,50.4,34.1,39.5,33.6,23.5,94,61,17,30.32,30.20,6,0,6,0.00
2013-2-28,69.2,53.0,40.2,51.9,46.3,38.9,97,80,49,30.45,30.36,3,0,7,0.00
2013-3-1,75.3,55.2,41.1,54.1,47.6,40.3,98,79,42,30.42,30.22,4,0,5,0.00
2013-3-2,74.3,58.0,46.4,53.5,48.6,44.7,96,73,44,30.23,30.05,3,0,5,0.00
2013-3-3,67.5,56.3,50.3,51.4,48.3,45.0,91,76,48,30.10,30.02,5,0,7,0.00
2013-3-4,64.3,52.2,43.4,48.6,44.8,41.2,92,77,55,30.15,30.04,6,0,7,0.00
2013-3-5,62.2,50.5,40.1,44.5,41.8,38.8,97,74,47,30.07,29.88,11,1,14,0.03
2013-3-6,59.6,50.9,41.4,46.4,42.0,36.6,95,74,43,30.07,29.88,6,0,7,0.12
2013-3-7,61.3,48.2,38.3,46.1,40.9,33.8,97,79,37,30.00,29.83,5,0,5,0.47
2013-3-8,61.3,50.9,43.5,48.3,43.5,39.8,97,77,48,30.08,29.82,9,0,10,0.06
2013-3-9,68.3,52.7,41.8,44.7,41.3,37.1,91,69,33,30.30,30.08,7,0,7,0.00
2013-3-10,73.0,53.7,37.6,45.1,39.6,33.2,97,66,25,30.34,30.23,6,0,6,0.00
2013-3-11,75.5,54.2,37.7,48.9,41.9,36.1,96,68,31,30.26,30.09,7,0,7,0.00
2013-3-12,75.7,57.4,45.1,52.6,48.5,43.9,97,76,40,30.16,30.05,4,0,6,0.00
2013-3-13,78.7,60.0,45.0,54.9,50.5,44.2,98,75,39,30.16,30.04,6,0,8,0.00
2013-3-14,74.2,58.4,46.8,56.5,49.4,43.0,98,75,36,30.17,30.08,5,0,6,0.00
2013-3-15,73.0,55.8,42.8,50.4,46.9,41.7,97,75,36,30.14,30.04,5,0,5,0.00
2013-3-16,73.5,57.3,49.7,52.4,47.6,35.7,94,73,26,30.11,30.03,6,0,6,0.00
2013-3-17,70.8,54.1,41.1,47.2,43.0,35.4,98,71,29,30.15,30.03,7,0,7,0.00
2013-3-18,68.4,53.6,39.6,49.0,43.4,38.2,97,72,41,30.12,30.02,7,0,7,0.00
2013-3-19,74.0,55.6,43.5,51.4,44.7,40.0,96,71,32,30.14,30.05,6,0,8,0.09
2013-3-20,69.6,58.3,52.3,55.5,52.2,47.5,97,82,48,30.13,30.05,6,0,6,0.06
2013-3-21,67.3,54.9,45.8,49.7,44.3,40.2,88,69,42,30.13,30.00,7,0,7,0.00
2013-3-22,71.4,54.9,40.0,43.6,36.0,21.7,96,57,16,30.09,30.00,8,0,11,0.00
2013-3-23,71.6,53.7,37.5,43.1,35.0,22.5,95,58,17,30.12,30.02,7,0,7,0.00
2013-3-24,73.3,54.0,39.1,48.8,43.3,37.6,96,71,33,30.09,29.95,7,0,7,0.00
2013-3-25,64.1,51.8,42.4,49.5,44.8,41.3,97,79,55,30.02,29.95,6,0,7,0.00
2013-3-26,70.7,55.4,45.0,50.8,45.3,41.8,90,71,43,30.01,29.91,5,0,6,0.00
2013-3-27,71.5,56.7,45.1,53.8,48.9,43.5,96,77,50,30.01,29.94,9,0,9,0.00
2013-3-28,77.2,62.2,54.4,55.6,53.1,50.7,91,74,44,30.07,29.99,6,0,6,0.00
2013-3-29,81.8,63.2,51.7,57.8,52.6,49.8,96,72,35,30.08,29.98,7,0,10,0.00
2013-3-30,75.7,61.3,54.0,55.3,51.6,46.0,89,72,37,30.07,29.96,9,0,10,0.01
2013-3-31,69.8,59.8,52.1,56.0,51.8,47.5,97,77,48,30.06,29.98,9,0,10,0.07
2013-4-1,71.2,59.5,52.4,55.5,52.3,47.9,97,79,45,30.14,30.04,7,0,7,0.11
2013-4-2,72.8,58.5,48.2,55.9,50.9,46.5,96,78,51,30.18,30.07,6,0,6,0.00
2013-4-3,83.5,59.9,46.5,56.4,50.4,45.4,98,75,31,30.15,29.94,6,0,6,0.00
2013-4-4,69.0,59.3,51.6,58.5,53.0,48.8,96,81,60,30.11,29.99,9,0,9,0.09
2013-4-5,69.3,60.0,52.0,55.0,51.3,48.6,92,74,55,30.18,30.10,5,0,5,0.00
2013-4-6,71.2,58.3,48.2,56.6,51.3,46.5,96,79,56,30.19,30.12,5,0,6,0.00
2013-4-7,70.8,58.5,48.5,56.6,49.9,45.4,97,75,46,30.18,29.88,10,0,10,0.03
2013-4-8,70.1,55.8,46.9,50.5,40.5,34.0,93,60,27,30.01,29.83,12,1,17,0.01
2013-4-9,78.0,60.4,44.0,49.5,40.3,30.7,91,54,20,30.07,30.00,10,0,10,0.00
2013-4-10,87.3,64.1,46.1,53.9,48.0,43.4,94,62,27,30.16,30.03,7,0,7,0.00
2013-4-11,74.5,59.3,49.8,51.5,47.6,42.3,91,68,32,30.08,29.85,6,-3,6,0.00
2013-4-12,80.1,58.0,42.4,52.3,46.6,41.1,97,70,32,29.92,29.82,6,0,6,0.00
2013-4-13,72.0,55.9,44.8,52.6,45.1,41.1,96,70,39,29.91,29.84,8,0,9,0.00
2013-4-14,71.1,55.5,43.0,47.3,42.0,32.2,94,65,30,29.94,29.86,10,0,10,0.00
2013-4-15,64.3,53.4,45.7,48.4,40.2,32.5,85,63,37,29.96,29.86,11,1,12,0.00
2013-4-16,71.4,53.5,37.0,43.7,36.3,28.4,95,59,21,30.13,29.96,7,0,7,0.00
2013-4-17,73.3,58.2,43.6,43.4,34.8,26.0,86,47,19,30.24,30.12,13,0,13,0.00
2013-4-18,80.8,59.3,40.4,43.8,39.1,30.7,90,55,18,30.26,30.16,8,0,8,0.00
2013-4-19,86.9,62.9,44.1,52.2,45.2,40.2,88,58,22,30.23,30.06,6,0,7,0.00
2013-4-20,83.8,63.9,49.4,51.4,47.8,41.7,96,62,23,30.10,29.97,7,0,7,0.00
2013-4-21,89.6,65.6,47.2,53.5,46.9,38.6,96,60,17,30.03,29.91,5,0,7,0.00
2013-4-22,92.8,69.0,49.6,51.3,45.8,36.3,86,51,14,29.96,29.82,8,0,8,0.00
2013-4-23,87.0,65.9,51.3,51.7,41.8,23.0,88,50,12,29.91,29.84,8,0,9,0.00
2013-4-24,76.3,59.4,45.2,54.2,49.1,43.9,96,72,41,29.95,29.83,5,0,6,0.00
2013-4-25,74.9,59.6,48.9,55.1,50.3,47.0,95,73,46,30.13,29.94,6,0,8,0.00
2013-4-26,76.3,60.9,52.1,54.4,50.4,48.1,87,70,44,30.22,30.13,5,0,5,0.00
2013-4-27,79.8,61.7,51.9,56.1,50.7,47.5,89,70,39,30.22,30.08,5,0,5,0.00
2013-4-28,86.2,65.7,53.1,56.9,51.9,49.1,90,66,32,30.08,29.87,4,0,6,0.00
2013-4-29,92.7,69.8,53.3,59.3,52.5,46.9,92,61,22,29.89,29.75,4,0,5,0.00
2013-4-30,85.3,66.3,51.2,54.4,48.2,40.5,92,58,22,29.84,29.77,6,0,7,0.00
2013-5-1,90.2,69.9,51.9,50.8,36.3,19.4,82,36,10,30.08,29.83,9,0,9,0.00
2013-5-2,96.0,71.5,50.4,50.9,42.0,31.8,86,44,11,30.14,30.05,8,0,8,0.00
2013-5-3,94.5,71.2,51.2,47.4,37.8,20.1,73,38,7,30.08,29.79,7,0,7,0.00
2013-5-4,92.8,68.0,52.6,50.6,44.6,38.0,73,48,17,29.79,29.54,10,0,10,0.00
2013-5-5,75.2,61.2,51.2,51.5,48.8,45.7,85,65,38,29.80,29.61,11,0,11,0.00
2013-5-6,73.7,61.7,51.7,54.1,49.9,48.0,89,67,45,29.96,29.80,8,0,9,0.00
2013-5-7,78.4,64.3,52.4,54.9,51.2,47.0,88,65,41,30.04,29.94,7,0,8,0.00
2013-5-8,72.7,61.7,55.4,56.1,52.5,50.0,90,73,52,30.15,30.03,10,0,10,0.00
2013-5-9,73.1,60.6,54.3,54.3,50.6,48.6,84,71,49,30.19,30.09,9,0,9,0.00
2013-5-10,76.2,62.1,54.3,57.8,52.6,49.3,87,73,51,30.19,30.10,6,0,8,0.00
2013-5-11,90.5,67.6,51.7,59.5,54.2,49.6,95,67,30,30.16,30.02,5,0,6,0.00
2013-5-12,84.0,66.5,52.3,63.2,54.4,46.7,96,69,37,30.14,30.03,6,0,7,0.00
2013-5-13,83.8,65.2,52.3,60.5,54.0,50.0,94,70,40,30.09,29.95,7,0,7,0.00
2013-5-14,82.5,64.2,51.6,58.8,51.2,44.8,94,66,38,30.03,29.93,5,0,5,0.00
2013-5-15,78.0,60.5,47.9,50.2,47.7,44.4,95,66,32,30.07,30.02,6,0,6,0.00
2013-5-16,77.2,61.5,52.2,58.7,51.8,47.3,91,72,43,30.05,29.97,7,0,7,0.02
2013-5-17,75.3,59.8,47.1,52.7,47.3,43.4,95,66,35,30.09,29.99,8,0,8,0.00
2013-5-18,78.9,60.6,44.3,53.4,47.6,41.6,92,66,34,30.14,30.08,6,0,8,0.00
2013-5-19,87.3,66.1,48.9,53.0,48.1,41.2,95,59,24,30.12,29.96,6,0,7,0.00
2013-5-20,95.0,69.1,48.6,53.7,46.6,32.4,90,54,12,30.00,29.90,6,0,6,0.00
2013-5-21,75.8,61.9,52.0,53.6,47.0,37.9,90,61,35,30.00,29.93,7,0,8,0.00
2013-5-22,72.7,57.5,47.6,41.3,36.8,29.0,76,49,24,30.01,29.92,7,0,7,0.00
2013-5-23,73.8,56.5,42.9,47.8,42.7,39.2,88,63,37,30.00,29.94,9,0,9,0.00
2013-5-24,76.5,58.0,42.7,50.3,43.9,39.8,92,63,28,30.00,29.95,7,0,7,0.00
2013-5-25,73.3,57.8,43.7,50.5,45.4,41.0,94,66,40,30.07,29.99,6,0,6,0.00
2013-5-26,78.3,63.5,54.2,55.0,51.9,48.5,84,68,38,30.14,30.06,8,0,8,0.00
2013-5-27,70.5,60.7,51.9,57.3,52.7,48.0,89,75,56,30.14,30.00,6,0,6,0.00
2013-5-28,76.7,65.1,56.7,59.2,54.8,49.2,92,71,44,30.00,29.91,7,0,7,0.00
2013-5-29,75.7,64.0,54.3,58.1,51.4,46.0,84,65,44,29.97,29.91,8,0,8,0.00
2013-5-30,81.5,61.8,46.0,51.8,47.2,43.1,94,63,27,29.99,29.93,7,0,7,0.00
2013-5-31,90.6,67.7,49.0,53.8,48.8,44.6,93,58,22,30.01,29.89,6,0,6,0.00
2013-6-1,95.5,71.7,52.1,56.7,51.8,45.3,92,56,19,29.93,29.76,8,0,8,0.00
2013-6-2,86.4,66.8,53.7,57.4,52.4,48.8,87,63,32,29.79,29.67,5,0,5,0.00
2013-6-3,83.8,65.7,52.3,59.2,53.1,48.8,89,67,40,29.85,29.72,7,0,7,0.00
2013-6-4,80.5,65.1,52.1,59.7,53.7,49.6,92,69,46,29.96,29.84,7,0,7,0.00
2013-6-5,78.8,64.6,54.4,58.1,53.8,51.0,90,70,46,29.99,29.91,5,0,6,0.00
2013-6-6,85.0,66.3,54.6,59.6,54.4,50.2,89,69,39,29.95,29.83,5,0,5,0.00
2013-6-7,94.8,71.3,51.9,62.7,55.8,49.7,94,63,32,29.89,29.71,5,0,6,0.00
2013-6-8,95.2,73.5,58.8,64.6,56.8,52.6,82,59,32,29.79,29.68,7,0,7,0.00
2013-6-9,81.0,66.3,57.4,58.7,54.8,51.4,88,68,44,29.86,29.79,13,1,13,0.00
2013-6-10,77.2,65.0,53.8,55.4,52.5,49.5,88,65,45,29.93,29.84,9,1,11,0.00
2013-6-11,78.8,65.9,56.5,59.9,54.9,51.6,84,69,48,29.97,29.89,5,0,7,0.00
2013-6-12,82.3,65.3,50.5,56.0,50.1,43.2,96,63,32,30.01,29.90,7,0,9,0.00
2013-6-13,83.7,64.6,47.3,51.1,47.3,43.2,90,59,26,30.08,29.99,7,0,8,0.00
2013-6-14,91.5,68.6,50.8,53.2,48.6,35.7,94,58,15,29.99,29.81,7,0,7,0.00
2013-6-15,79.5,63.5,51.0,57.2,52.2,48.8,94,69,43,30.01,29.83,6,0,7,0.00
2013-6-16,82.6,64.9,49.2,58.2,51.9,47.6,96,67,37,30.09,30.00,7,0,7,0.00
2013-6-17,79.2,65.1,54.0,59.2,54.1,50.1,89,70,48,30.10,30.03,7,0,7,0.00
2013-6-18,76.3,63.7,54.1,54.4,50.3,45.6,87,64,37,30.05,30.00,9,0,10,0.00
2013-6-19,79.2,63.5,51.6,52.6,48.0,43.6,89,60,30,30.05,30.00,8,0,8,0.00
2013-6-20,83.3,64.5,48.0,53.7,48.2,44.8,93,60,31,30.02,29.93,8,0,9,0.00
2013-6-21,87.3,65.5,49.5,55.9,50.3,46.2,92,62,26,29.98,29.91,7,0,7,0.00
2013-6-22,89.8,67.5,50.6,55.2,51.5,46.8,94,62,25,29.93,29.85,9,0,10,0.00
2013-6-23,74.1,65.2,56.2,62.2,57.9,53.3,91,78,59,29.89,29.80,3,0,3,0.00
2013-6-24,74.3,65.8,61.9,63.8,59.9,58.4,91,82,63,29.90,29.78,7,-3,7,0.04
2013-6-25,80.8,69.7,62.0,65.0,61.7,58.2,93,77,57,29.97,29.89,10,-3,10,0.01
2013-6-26,88.5,74.2,63.3,68.4,62.8,59.0,90,70,47,30.04,29.96,7,0,7,0.00
2013-6-27,92.0,74.7,60.9,63.9,59.7,54.5,95,64,30,30.06,29.99,7,0,7,0.00
2013-6-28,99.5,78.3,61.3,66.1,60.6,56.2,94,60,29,30.02,29.88,6,0,6,0.00
2013-6-29,102.5,79.8,60.3,62.7,58.2,48.6,92,54,20,29.92,29.79,6,0,6,0.00
2013-6-30,95.0,76.3,61.7,63.2,60.0,55.4,92,62,30,29.84,29.75,5,0,5,0.00
2013-7-1,98.0,76.9,59.9,64.2,59.6,56.7,92,61,28,29.83,29.78,7,0,7,0.00
2013-7-2,101.0,78.4,64.6,68.0,62.2,58.4,89,62,30,29.90,29.81,7,0,8,0.00
2013-7-3,99.0,76.2,61.0,65.3,60.5,55.3,93,63,26,29.90,29.73,7,0,7,0.00
2013-7-4,98.2,78.8,66.4,67.3,61.4,55.8,85,59,32,29.77,29.67,5,0,5,0.00
2013-7-5,82.5,68.3,56.9,60.1,55.1,51.7,86,65,43,29.80,29.71,6,0,7,0.00
2013-7-6,86.9,67.1,54.8,60.2,54.3,51.0,88,67,36,29.80,29.71,4,0,6,0.00
2013-7-7,87.3,67.3,53.1,60.3,54.6,50.5,93,68,36,29.85,29.75,4,0,6,0.00
2013-7-8,88.3,68.4,52.8,60.9,55.6,50.8,95,68,36,29.97,29.85,4,0,5,0.00
2013-7-9,94.3,72.7,57.2,62.5,57.7,53.0,96,65,27,30.01,29.90,4,0,6,0.00
2013-7-10,86.5,68.9,57.4,62.9,57.8,54.3,92,70,41,29.97,29.87,6,0,6,0.00
2013-7-11,83.7,67.1,56.6,60.6,55.7,51.8,87,69,42,29.94,29.87,6,0,7,0.00
2013-7-12,84.7,66.6,51.6,60.5,54.1,49.5,93,68,37,29.92,29.86,6,0,6,0.00
2013-7-13,89.3,68.8,50.8,60.8,53.9,49.2,96,65,30,29.95,29.87,7,0,7,0.00
2013-7-14,82.3,66.8,53.2,61.6,56.1,51.2,95,71,45,29.99,29.88,5,0,6,0.00
2013-7-15,80.5,65.6,56.8,59.2,55.0,52.5,88,71,46,29.92,29.81,5,0,5,0.00
2013-7-16,79.8,65.8,56.3,58.1,54.6,52.0,87,69,45,30.03,29.86,7,0,7,0.00
2013-7-17,81.2,66.9,58.5,60.8,56.1,53.4,88,70,47,30.09,30.02,6,0,6,0.00
2013-7-18,89.5,69.0,57.7,60.8,56.0,52.3,88,67,34,30.07,29.92,5,0,5,0.00
2013-7-19,89.1,69.1,56.3,62.2,57.0,53.4,92,69,37,29.95,29.81,5,0,5,0.00
2013-7-20,90.8,69.0,57.1,63.5,56.6,52.3,90,68,38,29.86,29.71,5,0,5,0.00
2013-7-21,87.8,68.5,53.2,61.8,55.9,50.5,92,68,40,29.86,29.75,4,0,4,0.00
2013-7-22,81.7,68.5,57.5,63.1,58.4,54.5,91,72,49,29.94,29.86,5,0,5,0.00
2013-7-23,87.5,71.6,62.9,63.9,59.5,56.5,88,68,41,29.98,29.93,6,0,6,0.00
2013-7-24,91.6,72.6,59.7,62.7,56.6,44.9,93,63,23,29.97,29.88,6,0,6,0.00
2013-7-25,88.0,70.3,56.5,62.8,58.0,54.1,95,69,36,30.02,29.92,6,0,6,0.00
2013-7-26,87.0,68.9,56.4,63.4,58.2,54.4,94,72,42,30.08,29.98,5,0,5,0.00
2013-7-27,84.8,68.2,55.2,62.8,57.6,53.2,95,72,39,30.03,29.83,5,0,5,0.00
2013-7-28,85.7,67.0,55.0,62.6,56.1,52.3,92,71,41,29.88,29.79,4,0,5,0.00
2013-7-29,85.4,66.1,55.2,60.1,54.9,51.2,88,70,38,30.00,29.83,6,0,6,0.00
2013-7-30,83.4,66.0,51.7,61.0,55.3,50.0,95,71,43,30.08,30.00,7,0,7,0.00
2013-7-31,83.2,65.6,53.2,60.3,54.2,50.9,93,69,41,30.08,30.01,6,0,8,0.00
2013-8-1,79.8,63.8,49.9,58.3,52.9,48.0,95,70,44,30.07,29.97,7,0,7,0.00
2013-8-2,83.6,64.5,49.6,60.6,53.7,48.2,97,72,39,29.98,29.89,1,0,5,0.00
2013-8-3,85.9,65.8,52.3,60.0,55.0,50.1,96,72,35,29.98,29.88,4,0,4,0.00
2013-8-4,81.9,64.9,56.9,60.7,55.2,52.7,88,73,46,30.01,29.93,5,0,7,0.00
2013-8-5,80.1,66.1,57.6,60.0,56.0,53.2,86,72,49,30.01,29.93,7,0,8,0.00
2013-8-6,78.8,65.8,58.7,59.4,55.7,53.8,85,71,50,30.03,29.97,6,0,7,0.00
2013-8-7,80.0,67.3,60.1,59.4,56.2,54.3,87,69,47,30.08,30.01,6,0,6,0.00
2013-8-8,81.7,67.0,59.4,60.7,56.9,54.0,84,72,48,30.03,29.92,7,0,7,0.00
2013-8-9,79.3,66.4,58.9,60.6,56.1,53.3,85,71,50,29.99,29.91,6,0,7,0.00
2013-8-10,81.5,67.2,60.1,61.8,57.7,55.0,85,73,49,30.04,29.98,7,0,7,0.00
2013-8-11,81.0,67.9,59.2,62.0,58.2,55.6,90,73,49,30.02,29.93,6,0,6,0.00
2013-8-12,86.8,69.0,56.4,62.4,57.0,53.8,95,70,37,29.98,29.92,6,0,6,0.00
2013-8-13,93.3,69.2,52.8,62.0,55.1,47.1,97,67,21,29.98,29.89,5,0,6,0.00
2013-8-14,84.8,67.9,53.6,61.2,56.7,51.7,96,71,39,29.98,29.91,7,0,7,0.00
2013-8-15,87.0,72.2,60.5,67.7,63.0,58.6,95,75,51,29.95,29.90,6,0,6,0.00
2013-8-16,88.8,72.2,60.9,67.0,62.1,56.1,94,74,39,29.98,29.93,6,0,8,0.00
2013-8-17,83.7,68.2,58.9,62.6,59.0,56.1,94,75,46,29.98,29.87,4,0,4,0.00
2013-8-18,97.1,73.1,55.3,63.0,58.8,54.2,97,67,27,29.88,29.75,5,0,5,0.00
2013-8-19,92.3,74.2,61.7,65.7,59.6,56.1,83,63,37,29.88,29.77,6,0,6,0.00
2013-8-20,88.7,71.4,59.7,63.0,58.5,53.7,87,67,34,29.88,29.78,6,0,6,0.00
2013-8-21,84.2,66.4,54.8,62.5,56.4,52.6,94,73,44,29.92,29.83,6,0,6,0.00
2013-8-22,80.3,66.1,55.8,60.6,56.8,53.8,95,74,49,29.96,29.87,4,0,6,0.00
2013-8-23,79.0,66.6,58.2,60.5,56.6,54.3,88,72,49,29.92,29.82,6,0,6,0.00
2013-8-24,83.8,66.7,53.1,61.4,57.1,51.7,96,75,44,29.90,29.84,8,0,8,0.00
2013-8-25,89.0,71.5,61.8,66.6,61.4,57.8,88,72,45,29.93,29.86,7,0,7,0.00
2013-8-26,82.5,68.8,58.8,62.2,58.0,53.3,88,70,42,29.99,29.90,7,0,7,0.00
2013-8-27,85.3,66.5,52.2,62.9,56.2,50.5,96,73,41,29.91,29.81,8,0,8,0.00
2013-8-28,86.3,69.4,58.1,64.0,60.6,56.4,96,76,45,29.94,29.85,6,0,6,0.00
2013-8-29,86.2,71.4,63.4,66.4,62.2,60.6,91,75,46,30.04,29.94,6,0,7,0.00
2013-8-30,92.5,73.0,59.8,65.6,60.8,57.0,97,70,31,30.03,29.90,6,0,7,0.00
2013-8-31,84.4,69.3,58.6,62.6,58.9,56.9,96,72,43,29.97,29.88,5,0,7,0.00
2013-9-1,85.9,70.0,59.8,61.5,58.5,54.0,93,70,37,29.94,29.86,7,0,8,0.00
2013-9-2,84.7,70.9,65.0,66.1,62.4,60.7,89,76,47,29.95,29.87,8,0,10,0.00
2013-9-3,83.5,68.7,58.2,61.6,57.1,50.6,96,71,35,29.99,29.92,7,0,8,0.00
2013-9-4,82.7,67.2,54.7,60.4,57.0,53.0,96,73,38,30.03,29.93,7,0,7,0.00
2013-9-5,81.6,66.0,53.2,59.4,55.4,51.8,97,72,41,30.01,29.94,7,0,8,0.00
2013-9-6,93.5,69.3,51.2,60.7,54.3,49.8,97,65,28,29.99,29.80,5,0,5,0.00
2013-9-7,98.7,73.9,54.9,57.6,53.4,47.3,88,56,19,29.85,29.76,6,0,7,0.00
2013-9-8,94.1,71.6,56.2,62.0,56.7,50.7,93,65,26,29.85,29.73,4,0,4,0.00
2013-9-9,93.6,71.7,57.1,63.8,58.1,53.4,95,68,28,29.80,29.69,4,0,4,0.00
2013-9-10,85.8,67.3,55.6,61.8,56.5,53.8,94,72,38,29.88,29.73,7,0,7,0.00
2013-9-11,82.0,66.5,56.1,61.4,57.3,53.9,94,74,45,29.98,29.88,4,0,5,0.00
2013-9-12,81.2,68.3,62.4,63.4,59.6,58.0,87,75,53,29.96,29.87,6,0,6,0.00
2013-9-13,80.0,66.6,58.9,63.0,58.3,55.2,89,76,53,29.91,29.77,6,0,6,0.00
2013-9-14,76.3,64.9,57.8,60.7,56.9,54.7,91,77,56,29.83,29.75,6,0,6,0.00
2013-9-15,81.8,66.5,57.2,60.2,56.9,53.1,92,73,46,29.86,29.79,6,0,8,0.00
2013-9-16,85.0,69.3,59.8,62.5,58.8,54.3,88,71,43,29.89,29.79,8,0,8,0.00
2013-9-17,77.5,63.9,53.5,58.1,53.8,49.6,96,73,38,29.89,29.84,4,0,9,0.00
2013-9-18,86.2,64.9,50.4,55.5,51.2,45.1,97,68,26,29.90,29.79,7,0,7,0.00
2013-9-19,90.5,66.3,48.0,52.6,48.8,41.4,94,61,20,29.84,29.72,6,0,6,0.00
2013-9-20,80.3,64.5,50.4,62.3,55.7,48.5,96,75,50,29.86,29.76,8,0,8,0.00
2013-9-21,69.7,63.0,54.5,63.5,57.2,52.5,94,82,63,29.90,29.80,7,0,7,0.21
2013-9-22,75.5,61.3,50.8,57.0,52.5,48.7,97,76,41,30.00,29.89,7,0,7,0.01
2013-9-23,83.2,64.0,49.7,61.4,55.0,48.4,97,76,41,30.01,29.91,5,0,5,0.00
2013-9-24,76.8,63.8,53.7,57.2,53.6,47.9,98,72,43,30.00,29.91,8,0,8,0.00
2013-9-25,71.9,60.7,51.6,50.0,47.4,44.3,89,64,39,29.94,29.82,9,0,9,0.00
2013-9-26,77.6,58.6,44.6,49.2,44.5,36.6,96,65,25,29.97,29.82,8,0,8,0.00
2013-9-27,81.0,60.0,44.4,46.8,43.2,35.1,95,61,22,30.08,29.97,7,0,9,0.00
2013-9-28,85.3,62.3,45.6,56.5,45.0,34.6,89,61,17,30.08,29.97,7,0,7,0.00
2013-9-29,79.5,64.1,50.9,60.1,56.1,49.7,98,78,48,30.10,30.02,5,0,5,0.00
2013-9-30,79.5,65.2,53.9,62.3,57.7,46.0,98,79,52,30.07,29.95,5,0,6,0.00
2013-10-1,75.7,60.6,47.5,52.8,48.7,43.7,93,68,37,30.01,29.90,6,0,6,0.00
2013-10-2,79.3,59.4,47.1,55.0,49.2,44.6,97,73,36,30.00,29.91,7,0,7,0.00
2013-10-3,74.5,59.0,44.1,46.4,41.5,34.4,94,59,26,30.05,29.93,6,0,8,0.00
2013-10-4,84.2,66.0,52.1,42.0,34.3,29.6,63,33,16,30.08,29.94,8,0,8,0.00
2013-10-5,87.0,62.0,43.2,43.9,38.3,29.0,85,49,14,30.18,30.07,5,0,5,0.00
2013-10-6,85.0,62.3,44.3,46.7,41.0,34.3,83,52,17,30.10,29.98,5,0,5,0.00
2013-10-7,83.6,62.9,47.4,47.0,40.6,26.1,82,51,13,29.98,29.85,5,0,5,0.00
2013-10-8,77.0,58.3,44.7,54.5,46.4,41.5,91,68,32,29.90,29.72,4,0,5,0.00
2013-10-9,70.0,56.8,48.3,51.1,47.0,43.3,93,72,44,29.74,29.62,6,0,6,0.00
2013-10-10,75.9,57.8,45.8,53.1,47.5,43.3,94,72,33,30.00,29.74,6,0,6,0.00
2013-10-11,70.0,55.1,44.9,54.1,48.9,43.6,97,81,53,30.07,29.96,4,0,5,0.00
2013-10-12,72.6,54.7,42.3,54.3,46.9,41.2,98,78,42,30.00,29.89,6,0,6,0.00
2013-10-13,74.2,56.2,43.1,51.7,45.4,41.5,97,72,36,30.05,29.92,5,0,5,0.00
2013-10-14,79.3,57.7,42.0,48.3,43.1,38.7,96,65,26,30.10,29.96,4,0,4,0.00
2013-10-15,81.0,58.9,42.3,45.2,41.0,34.7,94,60,20,30.02,29.91,5,0,5,0.00
2013-10-16,82.8,59.9,43.2,45.1,41.6,37.5,88,57,21,30.07,29.98,4,0,5,0.00
2013-10-17,81.6,59.8,43.6,45.5,41.1,32.1,88,57,18,30.07,29.93,4,0,4,0.00
2013-10-18,80.5,58.4,42.2,51.0,44.4,39.1,91,66,24,30.04,29.95,3,0,3,0.00
2013-10-19,82.0,58.6,42.9,54.4,48.5,41.6,97,74,34,30.07,29.96,3,0,3,0.00
2013-10-20,77.0,57.5,44.1,55.8,49.6,42.7,97,79,38,30.01,29.89,3,0,3,0.00
2013-10-21,73.5,58.2,48.5,55.4,51.8,47.0,97,82,50,30.00,29.89,2,0,2,0.00
2013-10-22,73.8,58.1,46.8,56.2,51.9,45.4,97,82,50,30.01,29.90,3,0,4,0.00
2013-10-23,68.0,57.2,52.0,56.2,52.4,50.1,96,85,61,29.97,29.88,3,0,3,0.00
2013-10-24,63.7,54.4,47.8,52.7,50.0,46.1,96,86,66,30.10,29.97,4,0,4,0.00
2013-10-25,70.4,56.0,43.8,54.2,49.6,42.7,97,81,51,30.16,30.06,4,0,4,0.00
2013-10-26,54.3,53.5,52.8,50.5,49.8,49.0,87,87,87,30.08,30.07,0,0,0,0.00
2013-10-27,52.8,52.0,51.3,49.0,48.3,47.5,87,87,87,30.07,30.05,0,0,0,0.00
2013-10-28,62.6,55.6,51.0,50.0,46.8,43.5,87,73,51,30.05,29.68,1,0,3,0.00
2013-10-29,62.4,55.4,48.1,50.7,47.7,44.4,93,76,58,30.04,29.85,1,0,3,0.00
2013-10-30,62.9,48.4,42.1,49.7,43.9,40.2,95,85,60,30.13,30.04,3,0,3,0.00
2013-10-31,69.9,54.8,42.7,49.0,45.2,40.5,94,73,43,30.16,30.04,1,0,2,0.00
2013-11-1,74.2,56.4,43.2,48.5,44.7,40.5,93,69,33,30.12,29.99,3,0,3,0.00
2013-11-2,68.5,55.3,44.3,53.8,47.1,40.6,87,75,49,30.01,29.91,4,0,4,0.00
2013-11-3,63.0,52.1,42.0,46.2,40.7,30.9,96,69,31,30.02,29.90,4,0,6,0.00
2013-11-4,65.4,51.4,38.1,42.8,38.1,30.5,95,65,28,30.04,29.90,8,0,8,0.00
2013-11-5,71.0,55.4,41.6,41.7,37.8,33.3,88,57,26,30.20,30.04,4,0,5,0.00
2013-11-6,71.8,56.0,42.5,45.0,40.8,36.8,84,60,29,30.23,30.13,2,0,3,0.00
2013-11-7,72.1,56.6,45.1,47.3,43.3,34.7,85,64,26,30.15,30.05,3,0,3,0.00
2013-11-8,69.0,55.4,45.4,52.9,47.2,42.3,95,76,46,30.07,29.94,3,0,3,0.00
2013-11-9,73.0,55.0,42.8,50.9,45.4,37.0,94,74,28,30.02,29.93,4,0,4,0.00
2013-11-10,63.3,52.2,45.1,51.5,47.7,42.9,96,85,57,30.11,30.01,2,0,2,0.00
2013-11-11,65.4,56.5,47.9,52.3,49.7,45.7,93,79,58,30.14,30.05,2,0,2,0.00
2013-11-12,69.5,58.9,49.4,53.3,50.0,45.7,88,74,43,30.24,30.13,3,0,3,0.00
2013-11-13,71.8,56.9,44.8,55.4,49.4,42.5,94,78,41,30.24,30.08,3,0,3,0.00
2013-11-14,63.9,55.1,47.2,54.4,51.2,45.1,95,87,70,30.10,29.89,4,0,6,0.00
2013-11-15,63.5,51.2,41.8,48.5,43.5,40.5,97,77,44,29.89,29.72,5,0,6,0.00
2013-11-16,61.9,51.1,40.9,49.9,44.4,38.2,94,79,47,29.92,29.77,6,0,7,0.00
2013-11-17,61.9,51.4,42.7,50.6,46.1,41.0,97,83,61,30.06,29.56,3,0,3,0.00
2013-11-18,59.9,50.6,42.2,48.2,45.3,40.6,96,83,63,30.11,30.04,3,0,3,0.00
2013-11-19,64.1,55.9,46.9,54.6,50.5,44.1,95,83,63,30.06,29.91,5,0,5,0.43
2013-11-20,64.1,56.7,52.7,58.2,54.8,51.4,96,93,80,29.92,29.81,5,0,6,0.26
2013-11-21,59.9,54.0,50.2,51.7,39.4,27.5,97,62,31,29.97,29.88,12,1,12,0.00
2013-11-22,66.4,54.8,45.0,37.1,27.8,20.1,71,38,19,30.01,29.88,8,0,9,0.00
2013-11-23,63.1,50.2,39.3,46.3,38.5,34.1,88,67,34,30.10,29.94,3,0,4,0.00
2013-11-24,63.3,49.6,39.3,46.3,41.0,37.4,94,75,42,30.24,30.09,4,0,4,0.00
2013-11-25,63.1,49.1,38.3,46.1,41.8,36.5,95,78,48,30.31,30.23,3,0,4,0.00
2013-11-26,62.2,50.1,41.0,46.8,43.4,38.9,93,79,52,30.25,30.01,3,0,3,0.00
2013-11-27,64.0,51.5,41.1,49.1,45.0,39.2,95,80,55,30.01,29.82,5,0,5,0.00
2013-11-28,65.9,52.1,44.1,49.1,44.6,41.9,93,78,45,30.08,29.85,4,0,4,0.00
2013-11-29,68.5,51.9,41.4,46.9,42.9,39.1,94,74,38,30.21,30.07,4,0,4,0.00
2013-11-30,63.3,50.2,39.4,47.8,43.0,37.0,92,78,51,30.25,30.17,3,0,3,0.00
2013-12-1,66.3,50.8,40.0,47.9,43.4,38.4,95,78,47,30.33,30.20,4,0,4,0.00
2013-12-2,62.0,51.0,39.5,52.0,46.2,37.7,96,84,64,30.22,29.97,8,0,8,0.00
2013-12-3,53.8,50.3,39.9,52.1,41.1,26.7,96,72,53,29.97,29.84,8,0,8,0.00
2013-12-4,49.7,39.8,30.6,34.5,27.7,19.7,91,66,32,30.07,29.92,5,0,6,0.00
2013-12-5,49.7,36.5,26.7,28.6,24.0,19.5,90,65,30,30.16,30.06,8,0,8,0.00
2013-12-6,52.7,42.3,29.4,43.8,31.1,22.7,92,66,44,30.18,29.92,5,0,5,0.00
2013-12-7,47.9,42.7,31.6,46.5,33.9,27.5,95,73,47,30.23,29.91,12,1,12,0.09
2013-12-8,44.6,35.5,28.3,32.3,26.0,19.7,94,71,41,30.30,30.19,6,0,6,0.00
2013-12-9,48.6,34.7,24.8,27.4,23.3,16.1,88,67,31,30.39,30.30,4,0,5,0.00
2013-12-10,50.5,36.2,25.5,31.4,27.2,22.9,92,73,40,30.39,30.19,4,0,4,0.00
2013-12-11,54.5,39.5,28.5,33.4,30.1,26.2,93,72,35,30.23,30.15,3,0,3,0.00
2013-12-12,56.7,40.8,28.7,35.7,31.3,26.4,93,72,39,30.25,30.14,3,0,3,0.00
2013-12-13,56.0,41.6,30.6,42.5,35.6,28.5,94,80,55,30.33,30.22,5,0,5,0.00
2013-12-14,38.6,33.6,32.9,35.4,31.4,30.8,92,92,87,30.35,30.29,0,0,0,0.00
2013-12-15,60.0,43.2,31.2,39.9,35.5,29.7,96,77,44,30.35,30.21,4,0,4,0.00
2013-12-16,63.2,46.1,34.3,42.9,37.0,32.4,93,74,38,30.23,30.09,3,0,3,0.00
2013-12-17,63.2,47.9,35.9,42.8,39.0,33.5,93,74,42,30.16,30.01,3,0,4,0.00
2013-12-18,62.0,49.6,41.6,47.1,43.0,39.3,93,79,47,30.01,29.78,5,0,5,0.00
2013-12-19,56.9,46.9,38.8,42.9,38.1,27.7,96,74,43,29.92,29.72,14,0,14,0.00
2013-12-20,58.3,44.4,32.8,30.5,23.0,9.2,83,50,15,30.00,29.91,6,0,6,0.00
2013-12-21,59.1,45.3,33.9,47.3,37.1,24.7,93,74,55,30.07,29.95,4,0,8,0.00
2013-12-22,64.2,47.5,35.5,45.6,38.4,34.2,97,74,37,30.27,30.07,8,0,8,0.00
2013-12-23,62.5,47.1,36.8,43.1,38.8,34.4,94,75,46,30.37,30.27,5,0,5,0.00
2013-12-24,66.5,48.0,36.0,43.7,38.9,33.9,95,74,41,30.32,30.18,4,0,4,0.00
2013-12-25,63.4,46.2,33.7,41.6,37.3,31.4,94,74,41,30.27,30.17,3,0,3,0.00
2013-12-26,65.1,46.9,33.8,42.7,37.8,31.7,95,74,37,30.24,30.13,3,0,4,0.00
2013-12-27,59.8,45.4,33.3,42.8,38.0,31.1,94,77,49,30.22,30.09,3,0,3,0.00
2013-12-28,62.8,45.2,32.9,42.0,35.6,31.0,96,73,33,30.14,30.00,5,0,5,0.00
2013-12-29,64.5,46.1,33.8,36.5,30.9,24.8,88,61,23,30.16,30.07,5,0,5,0.00
2013-12-30,65.4,46.0,32.5,38.2,33.4,28.8,87,65,30,30.25,30.16,4,0,4,0.00
2013-12-31,58.7,44.5,34.6,44.0,37.8,30.5,95,78,51,30.26,30.12,8,0,8,0.00
2014-1-1,61.4,44.9,32.5,41.1,35.7,30.7,94,73,36,30.20,30.10,4,0,5,0.00
2014-1-2,63.3,47.0,34.8,41.9,36.9,32.1,91,71,39,30.16,30.03,4,0,4,0.00